{"data":{"norad_id":68246,"intl_designator":"2026-054Q","name":"STARLINK-37043","alt_names":[],"object_type":"PAYLOAD","status":"ACTIVE","operator":null,"country":"US","launch_date":"2026-03-17","launch_site_code":"AFETR","launch_vehicle":null,"mission":null,"orbit_class":"UNKNOWN","rcs_meters":null,"size_class":null,"mass_kg":null,"dimensions":null,"purposes":["comms"],"wikipedia_slug":null,"has_3d_model":false,"image_url":null,"decayed_at":null,"tle_current":{"epoch":"2026-05-24T15:32:22.259040Z","epoch_age_seconds":105612,"freshness":"FRESH","line1":"1 68246U 26054Q   26144.64747985  .00023285  00000+0  54268-3 0  9997","line2":"2 68246  53.1586 301.7835 0000992  69.5275 290.5837 15.42172256 10658","mean_motion":15.42172256,"eccentricity":9.92e-5,"inclination_deg":53.1586,"raan_deg":301.7835,"arg_perigee_deg":69.5275,"mean_anomaly_deg":290.5837,"bstar":0.00054268,"rev_number":1065,"period_min":93.37478316041,"perigee_km":439.02320212342,"apogee_km":440.37586089127,"semimajor_km":6817.8365315073,"source":"CELESTRAK","updated_at":"2026-05-25T13:38:21.886008Z"}}}